CYTR

CFB Trenton

Airport
ICAO code
CYTR
Summary
ICAO Region
NAM
ICAO Territory
Location

Trenton, Ontario,

Coordinates
44° 7' 8" N , 77° 31' 41" W
KCC
Airport WX
Lake Effect Snow
Metar
CYTR 151100Z 23007KT 3SM BR BKN005 BKN250 23/22 A2982 RMK SF5CI2 DENSITY ALT 1719FT VIS VRB 2 1/4-4 SLP098

Description

Canadian Forces Base Trenton (also CFB Trenton), is a Canadian Forces base located 2.3 nm northeast of Trenton, Ontario. It is operated as an air force base by Canadian Forces Air Command (AIRCOM) and is the hub for air transport operations in Canada and abroad.

Climatology

Humid continental climate (Köppen climate classification Dfa) - characterized by four seasons: cold, windy, snowy winters, mild springs, hot, humid summers, and crisp and relatively short autumns. Precipitation reaches its lowest in January and February and peaks in summer and latter half of spring.

Runways

Designator Length Width Surface Rops
13/31 922 46 ASP No/No
6/24 3048 61 ASP No/No

Airport map

Aerial View

SKYbrary Partners:

Safety knowledge contributed by: